Regional Weather Roundup
Issued by NWS Newport/Morehead, NC

Current Version | Previous Version | Graphics & Text | Print | Product List | Glossary On
Versions: 1 2 3 4 5 6 7 8 9 10 11 12 13 14 15 16 17 18 19 20 21 22 23 24 25 26 27 28 29 30 31 32 33 34 35 36 37 38 39 40 41 42 43 44 45 46 47 48 49 50
000 ASUS42 KMHX 220510 RWRMHX WEATHER ROUNDUP FOR EASTERN NORTH CAROLINA NATIONAL WEATHER SERVICE NEWPORT/MOREHEAD CITY NC 1200 AM EST SAT NOV 22 2014 NOTE: "FAIR" INDICATES FEW OR NO CLOUDS BELOW 12,000 FEET WITH NO SIGNIFICANT WEATHER AND/OR OBSTRUCTIONS TO VISIBILITY NCZ015>017-031-032-045>047-102-103-220600- NORTH COAST CITY SKY/WX TMP DP RH WIND PRES REMARKS EDENTON N/A 26 21 80 CALM 30.57S ELIZABETH CITY CLEAR 27 19 72 CALM 30.57S KITTY HAWK CLEAR 37 23 56 NW5 30.54S MANTEO CLEAR 38 26 61 NW5 30.55S $$ NCZ045>047-081-094-103-104-220600- CENTRAL COAST CITY SKY/WX TMP DP RH WIND PRES REMARKS FRISCO CLEAR 40 27 59 VRB6 30.53F SWANQUARTER N/A N/A N/A N/A NE3 30.53S $$ NCZ095-097-098-100-101-220600- SOUTHERN COAST CITY SKY/WX TMP DP RH WIND PRES REMARKS BEAUFORT CLEAR 35 24 64 NE6 30.55S CEDAR ISLAND N/A 41 N/A N/A N15 30.59S JACKSONVILLE CLEAR 33 20 58 NE6 30.55S PINEY ISLAND CLEAR 42 20 41 NE10 30.55S WILMINGTON CLEAR 33 19 56 NE9 30.53S $$ NCZ011>013-027>030-043-044-078>080-089-090>093-098-220600- COASTAL PLAIN CITY SKY/WX TMP DP RH WIND PRES REMARKS AHOSKIE CLEAR 24 18 77 CALM 30.57S CLINTON CLEAR 35 15 44 E3 30.55S ELIZABETHTOWN CLEAR 33 16 49 E3 30.54R GOLDSBORO CLEAR 31 17 56 CALM 30.53F GREENVILLE CLEAR 28 23 80 CALM 30.56S HAVELOCK CLEAR 37 25 61 NE12 30.56S KENANSVILLE CLEAR 29 17 63 CALM 30.56S KINSTON CLEAR 25 20 82 CALM 30.56S NEW BERN CLEAR 33 21 61 NE6 30.56F RICHLANDS CLEAR 27 18 69 CALM 30.55S ROCKY MOUNT CLEAR 25 17 72 CALM 30.56S WASHINGTON CLEAR 26 19 74 CALM 30.56S WHITEVILLE CLEAR 34 18 51 CALM 30.53S $$ AMZ130-135-150-152-154-156-158-170-250-252-270-ANZ085-086-088-633-658-670-220600- MARINE OBSERVATIONS STATION/POSITION TIME TEMP WIND PRES WAVE SWELL AIR SEA DIR/SP/G HT/PER HT/PER (UTC) (F) (DEG/KT/KT) (MB) (FT/S) (FT/S) CHESAPEAKE LIGHT 0400 39 10/ 13/ 14 1035.2 64 E VA BEACH 0500 42 61 360/ 12/ 16 1033.9 6/ 7 5/ 7 DUCK 0500 40 54 330/ 9/ 10 1033.8 2 E DUCK 0500 56 N/A 5/ 6 10 NE DUCK 0500 58 N/A 5/ 6 OREGON INLET 0500 40 51 350/ 8/ 10 1034.3 13E OREGON INLT 0500 61 N/A 5/ 8 HATTERAS CG 0500 43 51 20/ 14/ 18 1034.4 DIAMOND BUOY 0500 46 360/ 16/ 21 1033.7 5/ 9 3/ 9 17 S OCRACOKE NOT AVBL CAPE LOOKOUT 0400 42 20/ 13/ 16 1033.8 BEAUFORT LAB 0500 37 53 40/ 5/ 7 1033.4 30 SE NEW RIVER 0500 48 69 40/ 16/ 21 1033.1 3/ 5 5 SE WRIGHTSVLE 0400 45 59 70/ 19/ 23 1033.4 225 S CAPE HAT 0442 60 73 20/ 17/ 23 1030.3 7/ 8 3/ 8 41 SE CHARLESTON 0500 60 75 50/ 19/ 23 1030.5 5/ 5 2/12 $$

USA.gov is the U.S. government's official web portal to all federal, state and local government web resources and services.